WXM80 ListenWXM80 Stop

You find our weather info also at:

UK Metoffice

WeatherCloud

Weather Underground

Northeastern Weather Network

AWEKAS

Citizen Weather Observer Program (CWOP)

HAMweather, WeatherForYou, PWS Weather


Weather Underground History page Text

Daily Summary for January 18, 2018 Units:  Metric    English   Both
« Previous Day
Next Day »
Daily Weekly Monthly Yearly Custom
  High: Low: Average:
Temperature: -0.5 °C -6.8 °C -3.6 °C
Dew Point: -6.4 °C -9.6 °C -7.9 °C
Humidity: 83 % 60 % 72 %
Wind Speed: 14 km/h 0 km/h 5.8 km/h
Wind Gust: 24.1 km/h - -
Wind:- - WNW
Pressure: 1012.4 hPa 1004.6 hPa -
Precipitation: 0 mm    
Historical Graphs
 
 
Tabular Data for January 18, 2018
Time Temperature Dew Point Pressure Wind Wind Speed Wind Gust Humidity Rainfall Rate (Hourly)
00:04 -3.8 °C -6.4 °C 1011.7 hPa NNW 4.3 km/h 6.4 km/h 82 % 0 mm
00:09 -3.8 °C -6.4 °C 1012.1 hPa NW 1.4 km/h 9.3 km/h 82 % 0 mm
00:14 -3.9 °C -6.5 °C 1012.1 hPa NNW 4.5 km/h 11.1 km/h 82 % 0 mm
00:19 -3.9 °C -6.7 °C 1012.4 hPa WNW 3.7 km/h 11.1 km/h 81 % 0 mm
00:24 -4.1 °C -6.8 °C 1012.4 hPa WNW 6.3 km/h 11.1 km/h 81 % 0 mm
00:29 -4.1 °C -7.1 °C 1012.1 hPa NW 6.8 km/h 8 km/h 80 % 0 mm
00:34 -4.2 °C -7.1 °C 1011.7 hPa West 7.6 km/h 11.3 km/h 80 % 0 mm
00:39 -4.2 °C -7.2 °C 1011.7 hPa NNW 4.5 km/h 9.3 km/h 80 % 0 mm
00:44 -4.3 °C -7.3 °C 1011.4 hPa NNW 6.6 km/h 14.8 km/h 80 % 0 mm
00:50 -4.4 °C -7.3 °C 1011.7 hPa NNW 7.6 km/h 14.8 km/h 80 % 0 mm
00:55 -4.4 °C -7.6 °C 1012.1 hPa NW 3.9 km/h 7.4 km/h 79 % 0 mm
01:00 -4.4 °C -7.6 °C 1012.1 hPa WNW 3.7 km/h 13 km/h 79 % 0 mm
01:05 -4.5 °C -7.6 °C 1011.7 hPa NW 1.3 km/h 7.4 km/h 79 % 0 mm
01:10 -4.5 °C -7.6 °C 1011.7 hPa NW 3.4 km/h 9.3 km/h 79 % 0 mm
01:15 -4.6 °C -7.5 °C 1011.7 hPa NW 3.1 km/h 5.6 km/h 80 % 0 mm
01:20 -4.6 °C -7.6 °C 1011.7 hPa NW 6.1 km/h 13 km/h 80 % 0 mm
01:25 -4.7 °C -7.6 °C 1011.7 hPa NNW 5 km/h 7.4 km/h 80 % 0 mm
01:30 -4.7 °C -7.7 °C 1011.7 hPa NW 5 km/h 7.4 km/h 80 % 0 mm
01:35 -4.8 °C -7.7 °C 1011.4 hPa NW 6.8 km/h 16.7 km/h 80 % 0 mm
01:40 -4.8 °C -7.7 °C 1011.7 hPa NNW 6.3 km/h 11.1 km/h 80 % 0 mm
01:45 -4.8 °C -7.8 °C 1011.7 hPa NW 4 km/h 11.1 km/h 80 % 0 mm
01:50 -4.9 °C -7.9 °C 1011.7 hPa NW 4.3 km/h 11.1 km/h 80 % 0 mm
01:55 -5 °C -7.9 °C 1011.4 hPa NNW 5.6 km/h 9.7 km/h 80 % 0 mm
02:00 -5.1 °C -7.9 °C 1011.4 hPa NNW 6.9 km/h 9.3 km/h 80 % 0 mm
02:05 -5.2 °C -8.1 °C 1011.4 hPa North 6.3 km/h 12.9 km/h 80 % 0 mm
02:10 -5.2 °C -8.1 °C 1011.4 hPa NW 8.7 km/h 18.5 km/h 80 % 0 mm
02:16 -5.3 °C -8.3 °C 1011.4 hPa NW 7.2 km/h 8 km/h 79 % 0 mm
02:21 -5.3 °C -8.4 °C 1011.4 hPa NNW 4.8 km/h 12.9 km/h 79 % 0 mm
02:26 -5.3 °C -8.4 °C 1011.4 hPa NW 4.8 km/h 16.1 km/h 79 % 0 mm
02:31 -5.4 °C -8.4 °C 1011.4 hPa NW 4.8 km/h 11.3 km/h 79 % 0 mm
02:36 -5.4 °C -8.3 °C 1011.1 hPa NW 9.7 km/h 19.3 km/h 80 % 0 mm
02:41 -5.5 °C -8.4 °C 1011.4 hPa NW 4.8 km/h 14.5 km/h 80 % 0 mm
02:46 -5.6 °C -8.4 °C 1011.1 hPa NNW 4.8 km/h 14.5 km/h 80 % 0 mm
02:51 -5.6 °C -8.3 °C 1011.1 hPa NNW 8 km/h 16.1 km/h 81 % 0 mm
02:56 -5.6 °C -8.3 °C 1010.7 hPa NNW 4.8 km/h 14.5 km/h 81 % 0 mm
03:01 -5.6 °C -8.2 °C 1011.1 hPa NW 4.7 km/h 9.3 km/h 82 % 0 mm
03:06 -5.7 °C -8.2 °C 1010.7 hPa NW 8 km/h 19.3 km/h 82 % 0 mm
03:11 -5.7 °C -8.4 °C 1011.1 hPa NNW 8 km/h 12.9 km/h 81 % 0 mm
03:16 -5.8 °C -8.5 °C 1010.7 hPa NW 9.3 km/h 9.7 km/h 81 % 0 mm
03:21 -5.8 °C -8.6 °C 1010.7 hPa NW 9.7 km/h 14.5 km/h 81 % 0 mm
03:26 -5.8 °C -8.6 °C 1010.7 hPa NW 8 km/h 19.3 km/h 81 % 0 mm
03:31 -5.9 °C -8.4 °C 1010.4 hPa NW 8 km/h 19.3 km/h 82 % 0 mm
03:36 -5.9 °C -8.5 °C 1010 hPa NW 8 km/h 12.9 km/h 82 % 0 mm
03:41 -6 °C -8.6 °C 1010 hPa NW 4.8 km/h 12.9 km/h 82 % 0 mm
03:46 -6 °C -8.6 °C 1009.7 hPa NNW 4.8 km/h 14.5 km/h 82 % 0 mm
03:51 -6.1 °C -8.6 °C 1009.7 hPa WNW 7.7 km/h 18.5 km/h 82 % 0 mm
03:56 -6.1 °C -8.6 °C 1009.7 hPa NW 4.8 km/h 12.9 km/h 82 % 0 mm
04:01 -6.1 °C -8.6 °C 1009.7 hPa NNW 7.2 km/h 13 km/h 83 % 0 mm
04:06 -6.2 °C -8.7 °C 1009.7 hPa NNW 7.2 km/h 13 km/h 82 % 0 mm
04:11 -6.2 °C -8.6 °C 1009.7 hPa NNW 6.8 km/h 11.1 km/h 83 % 0 mm
04:16 -6.2 °C -8.6 °C 1009.4 hPa NNW 5.6 km/h 11.3 km/h 83 % 0 mm
04:21 -6.2 °C -8.6 °C 1009 hPa NNW 3.9 km/h 6.4 km/h 83 % 0 mm
04:26 -6.3 °C -8.7 °C 1009 hPa NNW 6.9 km/h 16.7 km/h 83 % 0 mm
04:31 -6.3 °C -8.7 °C 1009 hPa NW 5.8 km/h 11.1 km/h 83 % 0 mm
04:36 -6.3 °C -8.9 °C 1009 hPa NW 7.7 km/h 13 km/h 82 % 0 mm
04:41 -6.4 °C -8.9 °C 1008.7 hPa NNW 9.7 km/h 9.7 km/h 82 % 0 mm
04:46 -6.4 °C -9 °C 1008.7 hPa NNW 5 km/h 9.3 km/h 82 % 0 mm
04:51 -6.4 °C -9 °C 1008.7 hPa NW 7.9 km/h 13 km/h 82 % 0 mm
04:56 -6.4 °C -9 °C 1008.7 hPa WNW 6.9 km/h 11.3 km/h 82 % 0 mm
05:01 -6.5 °C -9.1 °C 1008.4 hPa NNW 5.8 km/h 9.3 km/h 82 % 0 mm
05:06 -6.5 °C -8.9 °C 1008.4 hPa NNW 4.3 km/h 9.3 km/h 83 % 0 mm
05:11 -6.5 °C -8.9 °C 1008.7 hPa WNW 6.8 km/h 16.7 km/h 83 % 0 mm
05:16 -6.5 °C -8.9 °C 1008.7 hPa NNW 5.5 km/h 14.8 km/h 83 % 0 mm
05:21 -6.5 °C -9.1 °C 1008.7 hPa NW 5 km/h 9.3 km/h 82 % 0 mm
05:26 -6.5 °C -9.1 °C 1008.7 hPa NNW 5.1 km/h 9.7 km/h 82 % 0 mm
05:32 -6.6 °C -9.1 °C 1008.7 hPa WNW 2.3 km/h 9.7 km/h 82 % 0 mm
05:37 -6.6 °C -9.1 °C 1008.4 hPa North 5.5 km/h 9.3 km/h 82 % 0 mm
05:42 -6.6 °C -9.1 °C 1008.4 hPa NW 4.2 km/h 9.3 km/h 82 % 0 mm
05:47 -6.6 °C -9.1 °C 1008.4 hPa NW 3.9 km/h 11.1 km/h 82 % 0 mm
05:52 -6.6 °C -9 °C 1008.4 hPa North 4.3 km/h 9.7 km/h 83 % 0 mm
05:57 -6.6 °C -9 °C 1008.4 hPa NNW 3.7 km/h 11.1 km/h 83 % 0 mm
06:02 -6.6 °C -9.2 °C 1008.7 hPa North 4.7 km/h 11.3 km/h 82 % 0 mm
06:07 -6.7 °C -9.2 °C 1009 hPa North 5.5 km/h 9.3 km/h 82 % 0 mm
06:12 -6.7 °C -9.2 °C 1009.4 hPa NNW 2.3 km/h 5.6 km/h 82 % 0 mm
06:17 -6.7 °C -9.2 °C 1009.4 hPa NW 2.1 km/h 6.4 km/h 82 % 0 mm
06:22 -6.7 °C -9.3 °C 1009.4 hPa North 5.6 km/h 7.4 km/h 82 % 0 mm
06:27 -6.8 °C -9.5 °C 1009.7 hPa NNW 1 km/h 3.7 km/h 81 % 0 mm
06:32 -6.8 °C -9.5 °C 1009.7 hPa NNW 3.4 km/h 5.6 km/h 81 % 0 mm
06:37 -6.8 °C -9.5 °C 1009.7 hPa NW 4.8 km/h 7.4 km/h 81 % 0 mm
06:42 -6.8 °C -9.5 °C 1009.7 hPa WNW 1.4 km/h 8 km/h 81 % 0 mm
06:47 -6.8 °C -9.5 °C 1009.7 hPa WNW 4 km/h 7.4 km/h 81 % 0 mm
06:52 -6.8 °C -9.5 °C 1009.7 hPa WNW 1.6 km/h 5.6 km/h 81 % 0 mm
06:57 -6.8 °C -9.6 °C 1009.7 hPa WNW 3.7 km/h 9.3 km/h 81 % 0 mm
07:02 -6.8 °C -9.6 °C 1009.4 hPa West 4.3 km/h 13 km/h 81 % 0 mm
07:07 -6.8 °C -9.6 °C 1009.4 hPa WNW 5.3 km/h 11.1 km/h 81 % 0 mm
07:13 -6.8 °C -9.4 °C 1009.7 hPa WSW 6.6 km/h 11.1 km/h 82 % 0 mm
07:18 -6.8 °C -9.4 °C 1009.7 hPa NW 2.3 km/h 7.4 km/h 82 % 0 mm
07:23 -6.8 °C -9.6 °C 1009.7 hPa WNW 7.1 km/h 13 km/h 81 % 0 mm
07:28 -6.8 °C -9.6 °C 1009.7 hPa West 6.1 km/h 14.8 km/h 81 % 0 mm
07:33 -6.8 °C -9.6 °C 1009.7 hPa WNW 7.2 km/h 13 km/h 81 % 0 mm
07:38 -6.8 °C -9.6 °C 1009.7 hPa WNW 13.7 km/h 24.1 km/h 81 % 0 mm
07:43 -6.8 °C -9.6 °C 1009.4 hPa NW 12.1 km/h 20.4 km/h 81 % 0 mm
07:48 -6.7 °C -9.6 °C 1009.4 hPa West 5.1 km/h 16.7 km/h 80 % 0 mm
07:53 -6.7 °C -9.4 °C 1009.4 hPa NW 8.4 km/h 16.1 km/h 81 % 0 mm
07:58 -6.6 °C -9.3 °C 1009 hPa WNW 11.4 km/h 16.7 km/h 81 % 0 mm
08:03 -6.5 °C -9.4 °C 1009 hPa WNW 12.2 km/h 22.2 km/h 80 % 0 mm
08:08 -6.4 °C -9.3 °C 1009 hPa NNW 10.9 km/h 22.2 km/h 80 % 0 mm
08:13 -6.3 °C -9.4 °C 1009 hPa West 6.9 km/h 22.2 km/h 79 % 0 mm
08:18 -6.2 °C -9.4 °C 1009 hPa West 10.3 km/h 18.5 km/h 78 % 0 mm
08:23 -6.2 °C -9.4 °C 1009 hPa West 13 km/h 18.5 km/h 78 % 0 mm
08:28 -6.1 °C -9.4 °C 1009 hPa WNW 12.1 km/h 20.4 km/h 77 % 0 mm
08:33 -6 °C -9.4 °C 1009 hPa NW 10.9 km/h 19.3 km/h 77 % 0 mm
08:38 -5.9 °C -9.5 °C 1009 hPa WNW 14 km/h 24.1 km/h 76 % 0 mm
08:44 -5.8 °C -9.4 °C 1009 hPa WNW 8.9 km/h 18.5 km/h 76 % 0 mm
08:49 -5.7 °C -9.3 °C 1009 hPa WSW 8 km/h 18.5 km/h 76 % 0 mm
08:54 -5.6 °C -9.2 °C 1009 hPa WNW 10.1 km/h 20.4 km/h 76 % 0 mm
08:59 -5.5 °C -9.1 °C 1009 hPa NNW 10.6 km/h 18.5 km/h 76 % 0 mm
09:04 -5.4 °C -8.9 °C 1009 hPa WNW 10.3 km/h 18.5 km/h 76 % 0 mm
09:09 -5.3 °C -8.9 °C 1009 hPa WNW 6.9 km/h 13 km/h 76 % 0 mm
09:14 -5.2 °C -8.7 °C 1009 hPa WNW 5 km/h 14.8 km/h 76 % 0 mm
09:19 -5 °C -8.6 °C 1009 hPa NW 9.5 km/h 18.5 km/h 76 % 0 mm
09:24 -4.8 °C -8.4 °C 1009.4 hPa WNW 7.6 km/h 11.1 km/h 76 % 0 mm
09:29 -4.6 °C -8.3 °C 1009.4 hPa NW 3.7 km/h 7.4 km/h 75 % 0 mm
09:34 -4.3 °C -8.1 °C 1009.4 hPa NW 6.4 km/h 14.8 km/h 75 % 0 mm
09:39 -4 °C -8.1 °C 1009.4 hPa NW 3.2 km/h 11.1 km/h 73 % 0 mm
09:44 -3.8 °C -7.9 °C 1009.4 hPa WNW 7.9 km/h 13 km/h 73 % 0 mm
09:49 -3.6 °C -7.9 °C 1009.4 hPa NW 5.5 km/h 11.1 km/h 72 % 0 mm
09:54 -3.5 °C -8 °C 1009.4 hPa NW 4.2 km/h 9.3 km/h 71 % 0 mm
09:59 -3.3 °C -7.8 °C 1009.4 hPa NW 3.5 km/h 13 km/h 71 % 0 mm
10:04 -3.1 °C -8 °C 1009.4 hPa West 6 km/h 11.3 km/h 69 % 0 mm
10:10 -3 °C -8.1 °C 1009.4 hPa NW 5.3 km/h 9.3 km/h 68 % 0 mm
10:15 -2.8 °C -7.9 °C 1009.4 hPa WNW 3.7 km/h 7.4 km/h 68 % 0 mm
10:20 -2.7 °C -7.9 °C 1009.4 hPa West 2.1 km/h 13 km/h 67 % 0 mm
10:25 -2.6 °C -7.8 °C 1009.4 hPa WNW 4.2 km/h 9.7 km/h 67 % 0 mm
10:30 -2.4 °C -8.1 °C 1009.4 hPa NW 5.3 km/h 13 km/h 65 % 0 mm
10:35 -2.2 °C -7.5 °C 1009.4 hPa WNW 1.3 km/h 5.6 km/h 67 % 0 mm
10:40 -2.1 °C -7.8 °C 1009.4 hPa WSW 3.4 km/h 7.4 km/h 65 % 0 mm
10:45 -2 °C -7.7 °C 1009 hPa West 6.3 km/h 13 km/h 65 % 0 mm
10:50 -1.9 °C -7.8 °C 1008.7 hPa NW 8.5 km/h 16.7 km/h 64 % 0 mm
10:55 -1.9 °C -7.8 °C 1008.7 hPa NW 6.6 km/h 9.7 km/h 64 % 0 mm
11:00 -1.9 °C -8 °C 1008.4 hPa WNW 7.1 km/h 9.3 km/h 63 % 0 mm
11:05 -1.8 °C -7.9 °C 1008.4 hPa NNE 7.6 km/h 9.3 km/h 63 % 0 mm
11:10 -1.8 °C -7.9 °C 1008.4 hPa NW 5 km/h 7.4 km/h 63 % 0 mm
11:13 -1.8 °C -7.7 °C 1008 hPa WNW 6.8 km/h 11.3 km/h 64 % 0 mm
11:18 -1.8 °C -7.9 °C 1007.7 hPa NNW 4.8 km/h 14.8 km/h 63 % 0 mm
11:23 -1.8 °C -7.9 °C 1007.3 hPa WNW 8.4 km/h 16.7 km/h 63 % 0 mm
11:28 -1.9 °C -7.8 °C 1007.3 hPa NW 5.8 km/h 11.3 km/h 64 % 0 mm
11:33 -2.1 °C -7.9 °C 1007.3 hPa NNW 5.3 km/h 11.1 km/h 64 % 0 mm
11:38 -2.1 °C -7.9 °C 1007.3 hPa WNW 5.3 km/h 13 km/h 64 % 0 mm
11:43 -2.1 °C -7.9 °C 1007.3 hPa WNW 4.8 km/h 13 km/h 64 % 0 mm
11:48 -2.1 °C -8 °C 1007 hPa NNW 7.1 km/h 14.8 km/h 64 % 0 mm
11:53 -2.2 °C -7.9 °C 1007 hPa NNW 9.7 km/h 16.7 km/h 65 % 0 mm
11:58 -2.1 °C -7.8 °C 1006.7 hPa NW 7.1 km/h 14.8 km/h 65 % 0 mm
12:03 -2.2 °C -7.7 °C 1006.7 hPa NNW 5.1 km/h 11.1 km/h 66 % 0 mm
12:08 -2.1 °C -7.8 °C 1006.3 hPa NNW 8.4 km/h 9.3 km/h 65 % 0 mm
12:13 -2.1 °C -7.6 °C 1006.3 hPa NNW 10.3 km/h 16.7 km/h 66 % 0 mm
12:18 -2 °C -7.5 °C 1006 hPa NW 10 km/h 16.1 km/h 66 % 0 mm
12:23 -1.9 °C -7.4 °C 1006 hPa NW 6.9 km/h 24.1 km/h 66 % 0 mm
12:29 -1.7 °C -7.2 °C 1006 hPa NW 6.4 km/h 13 km/h 66 % 0 mm
12:34 -1.6 °C -7.6 °C 1006 hPa NW 10.3 km/h 24.1 km/h 64 % 0 mm
12:39 -1.5 °C -7.4 °C 1006 hPa NNW 9.5 km/h 18.5 km/h 64 % 0 mm
12:44 -1.4 °C -7.3 °C 1006 hPa NW 9.2 km/h 18.5 km/h 64 % 0 mm
12:49 -1.3 °C -7.5 °C 1005.6 hPa WNW 7.6 km/h 20.4 km/h 63 % 0 mm
12:54 -1.3 °C -7.5 °C 1005.6 hPa West 7.6 km/h 18.5 km/h 63 % 0 mm
12:59 -1.2 °C -7.2 °C 1005.6 hPa West 10.6 km/h 20.9 km/h 64 % 0 mm
13:04 -1.2 °C -7.6 °C 1005.3 hPa WNW 10.6 km/h 14.8 km/h 62 % 0 mm
13:09 -1.2 °C -7.5 °C 1005.3 hPa WNW 9.2 km/h 16.7 km/h 62 % 0 mm
13:14 -1.1 °C -7.3 °C 1005.3 hPa NW 6 km/h 16.1 km/h 63 % 0 mm
13:19 -1.1 °C -7.4 °C 1005 hPa NW 7.7 km/h 14.8 km/h 62 % 0 mm
13:24 -0.9 °C -7.3 °C 1005 hPa North 9.7 km/h 20.4 km/h 62 % 0 mm
13:29 -0.9 °C -7.3 °C 1005 hPa NNW 6.1 km/h 11.1 km/h 62 % 0 mm
13:34 -0.8 °C -7.2 °C 1005 hPa NW 5.1 km/h 11.1 km/h 62 % 0 mm
13:39 -0.8 °C -7.6 °C 1005 hPa WNW 9.5 km/h 20.4 km/h 60 % 0 mm
13:44 -0.7 °C -7.3 °C 1005 hPa NNE 7.9 km/h 16.7 km/h 61 % 0 mm
13:49 -0.7 °C -7.3 °C 1005 hPa NW 2.7 km/h 7.4 km/h 61 % 0 mm
13:54 -0.6 °C -7.2 °C 1005 hPa NW 9 km/h 14.8 km/h 61 % 0 mm
13:59 -0.6 °C -7.4 °C 1005 hPa WNW 9 km/h 13 km/h 60 % 0 mm
14:05 -0.6 °C -7.4 °C 1005 hPa West 8.9 km/h 9.3 km/h 60 % 0 mm
14:10 -0.6 °C -7.4 °C 1005 hPa NNW 8.4 km/h 13 km/h 60 % 0 mm
14:15 -0.6 °C -7.2 °C 1005 hPa NW 2.4 km/h 11.1 km/h 61 % 0 mm
14:20 -0.5 °C -7.1 °C 1005 hPa NW 6 km/h 13 km/h 61 % 0 mm
14:25 -0.6 °C -7.2 °C 1005 hPa NW 6.4 km/h 13 km/h 61 % 0 mm
14:30 -0.6 °C -7.2 °C 1005 hPa West 5.6 km/h 13 km/h 61 % 0 mm
14:35 -0.7 °C -7.1 °C 1005 hPa WNW 10.6 km/h 18.5 km/h 62 % 0 mm
14:40 -0.7 °C -6.9 °C 1004.6 hPa NW 7.2 km/h 14.8 km/h 63 % 0 mm
14:45 -0.8 °C -6.9 °C 1004.6 hPa North 7.4 km/h 12.9 km/h 63 % 0 mm
14:50 -0.8 °C -7 °C 1005 hPa WNW 8.2 km/h 16.1 km/h 63 % 0 mm
14:55 -0.9 °C -7.3 °C 1005 hPa NNW 7.9 km/h 13 km/h 62 % 0 mm
15:00 -1 °C -7.4 °C 1005 hPa North 7.9 km/h 9.3 km/h 62 % 0 mm
15:05 -1.1 °C -7.6 °C 1004.6 hPa North 6.6 km/h 11.1 km/h 61 % 0 mm
15:10 -1.2 °C -7.7 °C 1005 hPa NW 4.8 km/h 14.8 km/h 61 % 0 mm
15:15 -1.2 °C -7.5 °C 1005 hPa NW 8 km/h 16.1 km/h 62 % 0 mm
15:20 -1.2 °C -7.8 °C 1005 hPa NW 8 km/h 14.8 km/h 61 % 0 mm
15:25 -1.3 °C -7.6 °C 1005 hPa WNW 7.7 km/h 13 km/h 62 % 0 mm
15:30 -1.3 °C -7.8 °C 1005 hPa NNW 10.1 km/h 17.7 km/h 61 % 0 mm
15:35 -1.3 °C -7.8 °C 1005 hPa NNW 9.2 km/h 13 km/h 61 % 0 mm
15:41 -1.3 °C -7.9 °C 1005.3 hPa NNW 7.1 km/h 13 km/h 61 % 0 mm
15:46 -1.3 °C -7.9 °C 1005 hPa NW 8 km/h 16.1 km/h 61 % 0 mm
15:51 -1.3 °C -7.9 °C 1005 hPa NNW 6.9 km/h 14.8 km/h 61 % 0 mm
15:56 -1.3 °C -7.7 °C 1005 hPa NW 7.2 km/h 14.8 km/h 62 % 0 mm
16:01 -1.3 °C -7.7 °C 1005.3 hPa NW 8.5 km/h 16.7 km/h 62 % 0 mm
16:06 -1.3 °C -7.4 °C 1005.3 hPa North 11.1 km/h 20.4 km/h 63 % 0 mm
16:11 -1.3 °C -7.4 °C 1005.3 hPa WNW 5.5 km/h 11.3 km/h 63 % 0 mm
16:16 -1.3 °C -7.5 °C 1005.3 hPa NNW 6.6 km/h 11.1 km/h 63 % 0 mm
16:21 -1.3 °C -7.3 °C 1005.3 hPa North 8.4 km/h 14.5 km/h 64 % 0 mm
16:26 -1.3 °C -7.5 °C 1005.3 hPa NNE 8 km/h 20.4 km/h 63 % 0 mm
16:31 -1.3 °C -7.5 °C 1005.6 hPa NNW 11.7 km/h 14.8 km/h 63 % 0 mm
16:36 -1.3 °C -7.7 °C 1005.6 hPa NW 9.7 km/h 14.8 km/h 62 % 0 mm
16:41 -1.3 °C -7.9 °C 1005.6 hPa NNW 10.8 km/h 16.7 km/h 61 % 0 mm
16:46 -1.3 °C -7.7 °C 1006 hPa NNW 6.9 km/h 13 km/h 62 % 0 mm
16:51 -1.3 °C -7.7 °C 1006.3 hPa WNW 8.7 km/h 13 km/h 62 % 0 mm
16:57 -1.4 °C -7.6 °C 1006.3 hPa North 6.6 km/h 17.7 km/h 63 % 0 mm
17:02 -1.4 °C -7.6 °C 1006.3 hPa NNW 7.6 km/h 11.1 km/h 63 % 0 mm
17:07 -1.4 °C -7.6 °C 1006.3 hPa NW 6.8 km/h 7.4 km/h 63 % 0 mm
17:12 -1.5 °C -7.8 °C 1006.3 hPa NW 9.3 km/h 16.7 km/h 62 % 0 mm
17:17 -1.6 °C -7.7 °C 1006.3 hPa NNW 7.4 km/h 11.1 km/h 63 % 0 mm
17:22 -1.6 °C -7.7 °C 1006.7 hPa NNW 6.9 km/h 11.1 km/h 63 % 0 mm
17:27 -1.6 °C -7.6 °C 1006.7 hPa NNW 1 km/h 5.6 km/h 64 % 0 mm
17:32 -1.7 °C -7.4 °C 1007 hPa NNW 7.7 km/h 16.7 km/h 65 % 0 mm
17:37 -1.7 °C -7.7 °C 1007 hPa North 6.6 km/h 11.1 km/h 64 % 0 mm
17:42 -1.7 °C -7.4 °C 1007 hPa North 6.3 km/h 9.3 km/h 65 % 0 mm
17:47 -1.8 °C -7.5 °C 1007 hPa North 7.7 km/h 11.1 km/h 65 % 0 mm
17:52 -1.8 °C -7.7 °C 1007 hPa NNE 9.8 km/h 14.8 km/h 64 % 0 mm
17:57 -1.9 °C -7.6 °C 1007.3 hPa North 6 km/h 9.7 km/h 65 % 0 mm
18:02 -1.9 °C -7.6 °C 1007.3 hPa North 7.4 km/h 11.1 km/h 65 % 0 mm
18:07 -1.9 °C -7.7 °C 1007.3 hPa North 7.7 km/h 11.1 km/h 65 % 0 mm
18:12 -1.9 °C -7.4 °C 1007.7 hPa NNE 3.9 km/h 9.3 km/h 66 % 0 mm
18:17 -2 °C -7.5 °C 1007.7 hPa North 4.2 km/h 9.7 km/h 66 % 0 mm
18:23 -2 °C -7.5 °C 1007.7 hPa NW 4.8 km/h 9.3 km/h 66 % 0 mm
18:28 -2 °C -7.5 °C 1008 hPa NNW 4.2 km/h 11.1 km/h 66 % 0 mm
18:33 -2.1 °C -7.4 °C 1008 hPa NNW 4.3 km/h 7.4 km/h 67 % 0 mm
18:38 -2.1 °C -7.4 °C 1008 hPa North 3.1 km/h 9.7 km/h 67 % 0 mm
18:43 -2.1 °C -7.4 °C 1008 hPa North 4.5 km/h 9.3 km/h 67 % 0 mm
18:48 -2.1 °C -7.4 °C 1008.4 hPa North 6.4 km/h 9.3 km/h 67 % 0 mm
18:53 -2.2 °C -7.3 °C 1008 hPa NNW 6 km/h 9.3 km/h 68 % 0 mm
18:58 -2.2 °C -7.3 °C 1008.4 hPa NW 3.9 km/h 5.6 km/h 68 % 0 mm
19:03 -2.2 °C -7.5 °C 1008.4 hPa NNW 5.1 km/h 7.4 km/h 67 % 0 mm
19:08 -2.2 °C -7.5 °C 1008.4 hPa NNE 2.1 km/h 5.6 km/h 67 % 0 mm
19:13 -2.2 °C -7.3 °C 1008.4 hPa NW 3.4 km/h 5.6 km/h 68 % 0 mm
19:18 -2.2 °C -7.5 °C 1008.4 hPa NNW 1.3 km/h 5.6 km/h 67 % 0 mm
19:23 -2.2 °C -7.5 °C 1008.7 hPa NW 4 km/h 5.6 km/h 67 % 0 mm
19:28 -2.2 °C -7.5 °C 1008.4 hPa NNW 6.1 km/h 11.1 km/h 67 % 0 mm
19:33 -2.3 °C -7.6 °C 1008.4 hPa NW 2.7 km/h 5.6 km/h 67 % 0 mm
19:38 -2.3 °C -7.6 °C 1008.7 hPa NNW 1.1 km/h 1.9 km/h 67 % 0 mm
19:43 -2.3 °C -7.6 °C 1008.7 hPa NW 2.3 km/h 4.8 km/h 67 % 0 mm
19:48 -2.3 °C -7.4 °C 1008.7 hPa WNW 5.5 km/h 11.3 km/h 68 % 0 mm
19:53 -2.3 °C -7.4 °C 1008.7 hPa NW 1.8 km/h 5.6 km/h 68 % 0 mm
19:58 -2.3 °C -7.3 °C 1009 hPa NW 0.8 km/h 5.6 km/h 69 % 0 mm
20:03 -2.4 °C -7.3 °C 1009 hPa NW 6.3 km/h 9.7 km/h 69 % 0 mm
20:08 -2.4 °C -7.3 °C 1009 hPa NNE 4.5 km/h 5.6 km/h 69 % 0 mm
20:14 -2.4 °C -7.3 °C 1008.7 hPa NNE 5.6 km/h 6.4 km/h 69 % 0 mm
20:19 -2.4 °C -7.3 °C 1008.7 hPa North 1.1 km/h 3.7 km/h 69 % 0 mm
20:24 -2.5 °C -7.4 °C 1008.7 hPa North 4.3 km/h 7.4 km/h 69 % 0 mm
20:29 -2.5 °C -7.4 °C 1009 hPa North 2.9 km/h 5.6 km/h 69 % 0 mm
20:34 -2.6 °C -7.3 °C 1009 hPa North 3.5 km/h 7.4 km/h 70 % 0 mm
20:39 -2.6 °C -7.4 °C 1009 hPa NNW 5.6 km/h 13 km/h 69 % 0 mm
20:44 -2.6 °C -7.4 °C 1009 hPa NNW 1.9 km/h 5.6 km/h 69 % 0 mm
20:49 -2.6 °C -7.7 °C 1009 hPa NW 2.7 km/h 5.6 km/h 68 % 0 mm
20:54 -2.6 °C -7.4 °C 1009.4 hPa NW 1.8 km/h 5.6 km/h 69 % 0 mm
20:59 -2.6 °C -7.5 °C 1009.4 hPa WNW 3.7 km/h 5.6 km/h 69 % 0 mm
21:04 -2.6 °C -7.5 °C 1009.7 hPa NNW 0.6 km/h 5.6 km/h 69 % 0 mm
21:09 -2.7 °C -7.6 °C 1009.7 hPa Calm   5.6 km/h 69 % 0 mm
21:14 -2.7 °C -7.4 °C 1009.7 hPa NW 4.5 km/h 8 km/h 70 % 0 mm
21:19 -2.7 °C -7.4 °C 1009.7 hPa NW 1.9 km/h 5.6 km/h 70 % 0 mm
21:24 -2.7 °C -7.4 °C 1009.7 hPa WNW 1.1 km/h 9.3 km/h 70 % 0 mm
21:29 -2.8 °C -7.5 °C 1009.7 hPa NW 2.6 km/h 5.6 km/h 70 % 0 mm
21:34 -2.8 °C -7.5 °C 1010 hPa Calm   3.7 km/h 70 % 0 mm
21:39 -2.8 °C -7.6 °C 1009.7 hPa WNW 2.4 km/h 7.4 km/h 70 % 0 mm
21:44 -2.8 °C -7.6 °C 1009.7 hPa NW 1.3 km/h 5.6 km/h 70 % 0 mm
21:50 -2.9 °C -7.6 °C 1010 hPa NW 3.1 km/h 6.4 km/h 70 % 0 mm
21:55 -2.9 °C -7.4 °C 1010 hPa WNW 4 km/h 5.6 km/h 71 % 0 mm
22:00 -2.9 °C -7.4 °C 1010 hPa Calm   1.9 km/h 71 % 0 mm
22:05 -2.9 °C -7.4 °C 1010 hPa NW 2.4 km/h 5.6 km/h 71 % 0 mm
22:10 -2.9 °C -7.4 °C 1009.7 hPa WNW 3.2 km/h 9.7 km/h 71 % 0 mm
22:15 -3 °C -7.5 °C 1009.7 hPa NW 1.6 km/h 5.6 km/h 71 % 0 mm
22:20 -3 °C -7.5 °C 1010 hPa NW 1.1 km/h 5.6 km/h 71 % 0 mm
22:25 -3.1 °C -7.6 °C 1010 hPa WNW 1.9 km/h 5.6 km/h 71 % 0 mm
22:30 -3.1 °C -7.6 °C 1010 hPa WNW 2.6 km/h 5.6 km/h 71 % 0 mm
22:35 -3.1 °C -7.4 °C 1009.7 hPa WNW 5 km/h 7.4 km/h 72 % 0 mm
22:40 -3.1 °C -7.4 °C 1009.7 hPa NW 1.9 km/h 7.4 km/h 72 % 0 mm
22:45 -3.1 °C -7.4 °C 1009.7 hPa NW 0.8 km/h 7.4 km/h 72 % 0 mm
22:50 -3.1 °C -7.3 °C 1009.7 hPa WNW 1.4 km/h 5.6 km/h 73 % 0 mm
22:55 -3.2 °C -7.3 °C 1009.7 hPa WNW 1.3 km/h 3.2 km/h 73 % 0 mm
23:00 -3.2 °C -7.3 °C 1009.4 hPa West 1.1 km/h 4.8 km/h 73 % 0 mm
23:05 -3.2 °C -7.3 °C 1009.4 hPa Calm     73 % 0 mm
23:10 -3.2 °C -7.4 °C 1009.4 hPa Calm     73 % 0 mm
23:15 -3.3 °C -7.4 °C 1009.4 hPa West 0.2 km/h 1.9 km/h 73 % 0 mm
23:20 -3.3 °C -7.3 °C 1009.7 hPa West 1.4 km/h 1.9 km/h 74 % 0 mm
23:25 -3.4 °C -7.4 °C 1009.4 hPa Calm   3.2 km/h 74 % 0 mm
23:31 -3.5 °C -7.4 °C 1009.4 hPa West 1.6 km/h 3.2 km/h 74 % 0 mm
23:36 -3.6 °C -7.4 °C 1009.4 hPa West 1.6 km/h 6.4 km/h 75 % 0 mm
23:40 -3.7 °C -7.5 °C 1009.4 hPa Calm   3.2 km/h 75 % 0 mm
23:45 -3.8 °C -7.6 °C 1009.4 hPa Calm   3.2 km/h 75 % 0 mm
23:50 -3.9 °C -7.7 °C 1009.4 hPa WNW 3.9 km/h 5.6 km/h 75 % 0 mm
23:56 -3.9 °C -7.7 °C 1009 hPa WNW 4.8 km/h 11.3 km/h 75 % 0 mm
Crab Meadow Weather
Compliments of Weather Underground - 3 mb

Script developed by  Jim McMurry - jmcmurry@mwt.net Adapted for the template by  Wim van der Kuil - Leuven-Template.eu

Recycling: Americans throw away 25,000,000,000 Styrofoam coffee cups every year.